#timestamp,LO_Frequency,Hit,StdDev 
1592845215.4,286047002.7,N
1592845235.2,286047002.4,N
1592845255.0,286047002.2,N
1592845255.9,286047002.2,N
1592845275.8,286046999.7,N
1592845295.6,286047001.9,N
1592845315.4,286047001.5,N
1592845335.3,286047004.4,Y
1592845355.1,286047002.7,P
1592845375.9,286047000.1,N
1592845395.7,286047002.7,N
1592845415.5,286046999.8,N
1592845435.4,286047000.3,N
1592845455.2,286047000.7,N
1592845475.1,286047002.8,N
1592845476.0,286047002.8,N
1592845495.8,286047000.0,N
1592845515.6,286047000.9,N
1592845535.5,286046999.7,N
1592845555.3,286047001.0,N
1592845575.2,286047001.1,N
1592845595.9,286047000.0,N
1592845615.7,286047000.2,N
1592845635.6,286047000.1,N
1592845655.4,286047000.2,N
1592845675.2,286047001.5,N
1592845695.1,286047001.9,N
1592845696.0,286047001.9,N
1592845715.8,286047001.9,N
1592845735.7,286047001.7,N
1592845755.5,286047004.1,Y
1592845775.3,286047002.8,P
1592845795.2,286046998.2,N
1592845815.0,286046998.6,N
1592845815.9,286046998.6,N
1592845835.8,286047001.1,N
1592845855.6,286046999.5,N
1592845875.4,286046999.6,N
1592845895.3,286046998.5,N
1592845915.1,286046998.6,N
1592845935.8,286047001.9,N
1592845955.7,286047000.0,N
1592845975.5,286047002.7,N
1592845995.4,286047002.5,N
1592846015.2,286047002.5,N
1592846035.0,286047001.6,N
1592846035.9,286047001.6,N
1592846055.8,286046999.8,N
1592846075.6,286046998.9,N
1592846095.5,286047002.3,N
1592846115.3,286046998.6,N
1592846135.1,286047000.9,N
1592846155.9,286047002.4,N
1592846175.7,286047005.4,Y
1592846195.6,286047004.2,P
1592846215.4,286047002.0,N
1592846235.2,286047000.7,N
1592846255.1,286046998.8,N
1592846256.0,286046998.8,N
1592846275.8,286047000.7,N
1592846295.6,286047001.2,N
1592846315.5,286046999.5,N
1592846335.3,286047000.7,N
1592846355.2,286046998.1,N
1592846375.9,286046999.4,N
1592846395.7,286046996.5,N
1592846415.6,286046995.7,N
1592846435.4,286046997.9,N
1592846455.3,286046996.7,N
1592846475.1,286046999.6,N
1592846476.0,286046999.6,N
1592846495.8,286046997.5,N
1592846515.7,286046995.1,N
1592846535.5,286046995.1,N
1592846555.4,286046996.1,N
1592846575.2,286046995.1,N
1592846595.0,286046995.2,N
1592846595.9,286046995.2,N
1592846615.8,286046994.1,N
1592846635.6,286046993.8,N
1592846655.5,286046993.7,N
1592846675.3,286046996.1,N
1592846695.1,286046996.1,N
1592846715.9,286046996.1,N
1592846735.7,286046994.2,N
1592846755.5,286046996.3,N
1592846775.4,286046998.0,N
1592846795.2,286046995.5,N
1592846815.1,286046994.9,N
1592846816.0,286046994.9,N
1592846835.8,286046995.0,N
1592846855.6,286046999.6,N
1592846875.5,286047001.1,N
1592846895.3,286046999.9,N
1592846915.1,286047002.7,N
1592846935.9,286047002.0,N
1592846955.7,286046999.7,N
1592846975.6,286047002.1,N
1592846995.4,286047001.5,N
1592847015.2,286047002.5,N
1592847035.1,286047000.9,N
1592847036.0,286047000.9,N
1592847055.8,286046998.3,N
1592847075.7,286046998.0,N
1592847095.5,286046997.2,N
1592847115.3,286046995.6,N
1592847135.2,286046996.4,N
1592847155.0,286046993.8,N
1592847185.9,286046994.0,E
1592847195.9,286046998.0,N
1592847215.7,286047000.3,P
1592847235.5,286047000.4,N
1592847255.4,286047001.1,N
1592847275.2,286047000.9,N
1592847295.1,286046998.2,N
1592847296.0,286046998.2,N
1592847315.8,286046996.6,N
1592847335.6,286046998.4,N
1592847355.5,286047000.8,N
1592847375.3,286047000.3,N
1592847395.2,286047001.0,N
1592847415.9,286047000.7,N
1592847435.7,286047000.4,N
1592847455.6,286046999.9,N
1592847475.4,286046999.8,N
1592847495.2,286047002.8,N
1592847515.1,286047001.5,N
1592847516.0,286047001.5,N
1592847535.8,286047001.3,N
1592847555.7,286047003.8,N
1592847575.5,286047003.2,N
1592847595.3,286047003.3,N
1592847615.2,286047002.7,N
1592847635.0,286047002.8,N
1592847635.9,286047002.8,N
1592847655.7,286046999.7,N
1592847675.6,286047002.2,N
1592847695.4,286047001.8,N
1592847715.3,286047005.9,Y
1592847735.1,286047002.9,P
1592847755.8,286047002.9,N
1592847775.7,286047004.1,P
1592847795.5,286047004.0,Y
1592847815.4,286047000.4,P
1592847835.2,286047000.3,N
1592847855.0,286047000.7,N
1592847855.9,286047000.7,N
1592847875.8,286047001.1,N
1592847895.6,286047000.6,N
1592847915.5,286047000.9,N
1592847935.3,286047000.3,N
1592847955.1,286047001.8,N
1592847975.9,286047002.5,Y
1592847995.7,286047002.7,P
1592848015.6,286047000.3,N
1592848035.4,286047000.5,N
1592848085.2,286046998.6,E
1592848095.2,286047000.8,N
1592848115.9,286047000.2,P
1592848135.7,286047000.6,N
1592848155.6,286046998.1,Y
1592848175.4,286047000.6,P
1592848195.3,286046999.7,P
1592848215.1,286047000.1,N
1592848235.8,286046999.7,N
1592848255.7,286047000.0,N
1592848275.5,286047000.3,N
1592848295.4,286047000.9,N
1592848315.2,286047000.0,N
1592848335.0,286047000.3,N
1592848335.9,286047000.3,N
1592848355.8,286047000.2,N
1592848375.6,286047000.9,N
1592848395.5,286047000.2,N
1592848415.3,286047001.0,N
1592848435.1,286046999.7,N
1592848455.9,286047000.8,N
1592848475.7,286047000.1,N
1592848495.6,286046999.9,N
1592848515.4,286047002.2,Y
1592848535.2,286047000.0,P
1592848555.1,286047002.3,P
1592848556.0,286047002.3,N
1592848575.8,286047002.3,N
1592848595.6,286047002.3,N
1592848615.5,286047000.2,N
1592848635.3,286047002.3,N
1592848655.2,286047002.8,N
1592848675.9,286047002.8,N
1592848695.7,286047001.5,N
1592848715.6,286047001.9,N
1592848735.4,286047002.5,N
1592848755.2,286047001.4,N
1592848775.1,286047003.1,Y
1592848776.0,286047003.1,P
1592848795.8,286047001.5,N
